Вернуться в каталог

COSMOS 1799

АктивенВоенныеLEO
NORAD 17143·PAYLOAD·🇷🇺 Russia

Запущен Nov 21, 1986 с Plesetsk Cosmodrome

Loading…

Ближайшие Пролёты (ближайшие 24 часа)

TLE

СвежийSource: Space-Track

Эпоха: Sep 14, 2026, 18:00 UTC

1 17143U 86092F   26257.75060674 -.00000004  00000-0  75730-4 0  9999
2 17143  74.0180   6.4949 0037347  23.5987 143.2431 12.55280127824496

Отслеживайте COSMOS 1799 в реальном времени с AllMySat

Download on the App Store